Year,Month,Day,Hour,Minute,Value (Times are PST for temperature in C)
2012,07,17,00,00,17.10
2012,07,17,00,01,17.00
2012,07,17,00,02,17.00
2012,07,17,00,03,17.00
2012,07,17,00,04,16.90
2012,07,17,00,05,16.90
2012,07,17,00,06,16.80
2012,07,17,00,07,16.80
2012,07,17,00,08,16.80
2012,07,17,00,09,16.80
2012,07,17,00,10,16.80
2012,07,17,00,11,16.80
2012,07,17,00,12,16.90
2012,07,17,00,13,16.90
2012,07,17,00,14,16.90
2012,07,17,00,15,17.00
2012,07,17,00,16,17.00
2012,07,17,00,17,17.10
2012,07,17,00,18,17.10
2012,07,17,00,19,17.10
2012,07,17,00,20,17.00
2012,07,17,00,21,17.10
2012,07,17,00,22,17.10
2012,07,17,00,23,17.10
2012,07,17,00,24,17.10
2012,07,17,00,25,17.10
2012,07,17,00,26,17.10
2012,07,17,00,27,17.10
2012,07,17,00,28,17.10
2012,07,17,00,29,17.10
2012,07,17,00,30,17.20
2012,07,17,00,31,17.20
2012,07,17,00,32,17.20
2012,07,17,00,33,17.30
2012,07,17,00,34,17.30
2012,07,17,00,35,17.30
2012,07,17,00,36,17.30
2012,07,17,00,37,17.30
2012,07,17,00,38,17.30
2012,07,17,00,39,17.20
2012,07,17,00,40,17.20
2012,07,17,00,41,17.10
2012,07,17,00,42,17.00
2012,07,17,00,43,17.00
2012,07,17,00,44,16.90
2012,07,17,00,45,16.90
2012,07,17,00,46,16.80
2012,07,17,00,47,16.80
2012,07,17,00,48,16.80
2012,07,17,00,49,16.80
2012,07,17,00,50,16.90
2012,07,17,00,51,16.90
2012,07,17,00,52,16.90
2012,07,17,00,53,16.90
2012,07,17,00,54,17.00
2012,07,17,00,55,17.00
2012,07,17,00,56,17.00
2012,07,17,00,57,17.00
2012,07,17,00,58,16.90
2012,07,17,00,59,16.90
2012,07,17,01,00,16.90
2012,07,17,01,01,16.90
2012,07,17,01,02,16.80
2012,07,17,01,03,16.80
2012,07,17,01,04,16.70
2012,07,17,01,05,16.70
2012,07,17,01,06,16.70
2012,07,17,01,07,16.60
2012,07,17,01,08,16.60
2012,07,17,01,09,16.60
2012,07,17,01,10,16.60
2012,07,17,01,11,16.60
2012,07,17,01,12,16.50
2012,07,17,01,13,16.50
2012,07,17,01,14,16.50
2012,07,17,01,15,16.50
2012,07,17,01,16,16.40
2012,07,17,01,17,16.40
2012,07,17,01,18,16.40
2012,07,17,01,19,16.40
2012,07,17,01,20,16.30
2012,07,17,01,21,16.30
2012,07,17,01,22,16.30
2012,07,17,01,23,16.30
2012,07,17,01,24,16.20
2012,07,17,01,25,16.20
2012,07,17,01,26,16.20
2012,07,17,01,27,16.20
2012,07,17,01,28,16.20
2012,07,17,01,29,16.20
2012,07,17,01,30,16.20
2012,07,17,01,31,16.10
2012,07,17,01,32,16.10
2012,07,17,01,33,16.10
2012,07,17,01,34,16.10
2012,07,17,01,35,16.10
2012,07,17,01,36,16.10
2012,07,17,01,37,16.10
2012,07,17,01,38,16.10
2012,07,17,01,39,16.10
2012,07,17,01,40,16.10
2012,07,17,01,41,16.10
2012,07,17,01,42,16.00
2012,07,17,01,43,16.00
2012,07,17,01,44,16.00
2012,07,17,01,45,15.90
2012,07,17,01,46,15.90
2012,07,17,01,47,15.90
2012,07,17,01,48,15.90
2012,07,17,01,49,15.90
2012,07,17,01,50,15.80
2012,07,17,01,51,15.80
2012,07,17,01,52,15.80
2012,07,17,01,53,15.80
2012,07,17,01,54,15.80
2012,07,17,01,55,15.80
2012,07,17,01,56,15.80
2012,07,17,01,57,15.80
2012,07,17,01,58,15.80
2012,07,17,01,59,15.80
2012,07,17,02,00,15.70
2012,07,17,02,01,15.70
2012,07,17,02,02,15.70
2012,07,17,02,03,15.70
2012,07,17,02,04,15.70
2012,07,17,02,05,15.70
2012,07,17,02,06,15.70
2012,07,17,02,07,15.70
2012,07,17,02,08,15.60
2012,07,17,02,09,15.60
2012,07,17,02,10,15.60
2012,07,17,02,11,15.60
2012,07,17,02,12,15.50
2012,07,17,02,13,15.50
2012,07,17,02,14,15.50
2012,07,17,02,15,15.50
2012,07,17,02,16,15.50
2012,07,17,02,17,15.60
2012,07,17,02,18,15.60
2012,07,17,02,19,15.70
2012,07,17,02,20,15.70
2012,07,17,02,21,15.70
2012,07,17,02,22,15.80
2012,07,17,02,23,15.80
2012,07,17,02,24,15.90
2012,07,17,02,25,15.90
2012,07,17,02,26,15.90
2012,07,17,02,27,15.90
2012,07,17,02,28,15.90
2012,07,17,02,29,15.90
2012,07,17,02,30,16.00
2012,07,17,02,31,15.90
2012,07,17,02,32,16.00
2012,07,17,02,33,16.00
2012,07,17,02,34,16.00
2012,07,17,02,35,16.00
2012,07,17,02,36,15.90
2012,07,17,02,37,15.90
2012,07,17,02,38,15.90
2012,07,17,02,39,15.90
2012,07,17,02,40,15.90
2012,07,17,02,41,15.90
2012,07,17,02,42,15.90
2012,07,17,02,43,15.90
2012,07,17,02,44,15.80
2012,07,17,02,45,15.80
2012,07,17,02,46,15.80
2012,07,17,02,47,15.80
2012,07,17,02,48,15.80
2012,07,17,02,49,15.70
2012,07,17,02,50,15.70
2012,07,17,02,51,15.70
2012,07,17,02,52,15.80
2012,07,17,02,53,15.80
2012,07,17,02,54,15.80
2012,07,17,02,55,15.90
2012,07,17,02,56,15.90
2012,07,17,02,57,15.90
2012,07,17,02,58,15.90
2012,07,17,02,59,16.00
2012,07,17,03,00,16.00
2012,07,17,03,01,16.00
2012,07,17,03,02,16.10
2012,07,17,03,03,16.10
2012,07,17,03,04,16.10
2012,07,17,03,05,16.10
2012,07,17,03,06,16.10
2012,07,17,03,07,16.10
2012,07,17,03,08,16.00
2012,07,17,03,09,16.00
2012,07,17,03,10,16.00
2012,07,17,03,11,15.90
2012,07,17,03,12,15.90
2012,07,17,03,13,15.80
2012,07,17,03,14,15.70
2012,07,17,03,15,15.60
2012,07,17,03,16,15.50
2012,07,17,03,17,15.40
2012,07,17,03,18,15.40
2012,07,17,03,19,15.30
2012,07,17,03,20,15.30
2012,07,17,03,21,15.30
2012,07,17,03,22,15.20
2012,07,17,03,23,15.20
2012,07,17,03,24,15.20
2012,07,17,03,25,15.20
2012,07,17,03,26,15.10
2012,07,17,03,27,15.10
2012,07,17,03,28,15.00
2012,07,17,03,29,15.00
2012,07,17,03,30,14.90
2012,07,17,03,31,14.90
2012,07,17,03,32,14.90
2012,07,17,03,33,14.90
2012,07,17,03,34,14.80
2012,07,17,03,35,14.80
2012,07,17,03,36,14.70
2012,07,17,03,37,14.70
2012,07,17,03,38,14.60
2012,07,17,03,39,14.50
2012,07,17,03,40,14.50
2012,07,17,03,41,14.40
2012,07,17,03,42,14.40
2012,07,17,03,43,14.40
2012,07,17,03,44,14.40
2012,07,17,03,45,14.40
2012,07,17,03,46,14.30
2012,07,17,03,47,14.30
2012,07,17,03,48,14.30
2012,07,17,03,49,14.30
2012,07,17,03,50,14.30
2012,07,17,03,51,14.30
2012,07,17,03,52,14.30
2012,07,17,03,53,14.30
2012,07,17,03,54,14.30
2012,07,17,03,55,14.30
2012,07,17,03,56,14.20
2012,07,17,03,57,14.20
2012,07,17,03,58,14.20
2012,07,17,03,59,14.20
2012,07,17,04,00,14.10
2012,07,17,04,01,14.10
2012,07,17,04,02,14.10
2012,07,17,04,03,14.10
2012,07,17,04,04,14.10
2012,07,17,04,05,14.10
2012,07,17,04,06,14.10
2012,07,17,04,07,14.10
2012,07,17,04,08,14.00
2012,07,17,04,09,14.00
2012,07,17,04,10,14.00
2012,07,17,04,11,14.00
2012,07,17,04,12,14.00
2012,07,17,04,13,14.00
2012,07,17,04,14,14.00
2012,07,17,04,15,14.10
2012,07,17,04,16,14.20
2012,07,17,04,17,14.30
2012,07,17,04,18,14.40
2012,07,17,04,19,14.50
2012,07,17,04,20,14.60
2012,07,17,04,21,14.70
2012,07,17,04,22,14.80
2012,07,17,04,23,14.90
2012,07,17,04,24,14.90
2012,07,17,04,25,15.00
2012,07,17,04,26,15.00
2012,07,17,04,27,15.00
2012,07,17,04,28,14.90
2012,07,17,04,29,15.00
2012,07,17,04,30,15.00
2012,07,17,04,31,15.10
2012,07,17,04,32,15.10
2012,07,17,04,33,15.20
2012,07,17,04,34,15.20
2012,07,17,04,35,15.30
2012,07,17,04,36,15.30
2012,07,17,04,37,15.40
2012,07,17,04,38,15.40
2012,07,17,04,39,15.50
2012,07,17,04,40,15.50
2012,07,17,04,41,15.50
2012,07,17,04,42,15.50
2012,07,17,04,43,15.50
2012,07,17,04,44,15.50
2012,07,17,04,45,15.50
2012,07,17,04,46,15.50
2012,07,17,04,47,15.50
2012,07,17,04,48,15.50
2012,07,17,04,49,15.40
2012,07,17,04,50,15.40
2012,07,17,04,51,15.40
2012,07,17,04,52,15.50
2012,07,17,04,53,15.50
2012,07,17,04,54,15.50
2012,07,17,04,55,15.40
2012,07,17,04,56,15.40
2012,07,17,04,57,15.50
2012,07,17,04,58,15.50
2012,07,17,04,59,15.50
2012,07,17,05,00,15.50
2012,07,17,05,01,15.50
2012,07,17,05,02,15.50
2012,07,17,05,03,15.60
2012,07,17,05,04,15.60
2012,07,17,05,05,15.60
2012,07,17,05,06,15.60
2012,07,17,05,07,15.60
2012,07,17,05,08,15.60
2012,07,17,05,09,15.60
2012,07,17,05,10,15.50
2012,07,17,05,11,15.50
2012,07,17,05,12,15.40
2012,07,17,05,13,15.40
2012,07,17,05,14,15.30
2012,07,17,05,15,15.20
2012,07,17,05,16,15.10
2012,07,17,05,17,15.10
2012,07,17,05,18,15.00
2012,07,17,05,19,15.00
2012,07,17,05,20,14.90
2012,07,17,05,21,14.80
2012,07,17,05,22,14.80
2012,07,17,05,23,14.80
2012,07,17,05,24,14.70
2012,07,17,05,25,14.70
2012,07,17,05,26,14.70
2012,07,17,05,27,14.60
2012,07,17,05,28,14.60
2012,07,17,05,29,14.50
2012,07,17,05,30,14.50
2012,07,17,05,31,14.40
2012,07,17,05,32,14.40
2012,07,17,05,33,14.30
2012,07,17,05,34,14.30
2012,07,17,05,35,14.30
2012,07,17,05,36,14.30
2012,07,17,05,37,14.30
2012,07,17,05,38,14.20
2012,07,17,05,39,14.20
2012,07,17,05,40,14.20
2012,07,17,05,41,14.20
2012,07,17,05,42,14.20
2012,07,17,05,43,14.10
2012,07,17,05,44,14.10
2012,07,17,05,45,14.10
2012,07,17,05,46,14.10
2012,07,17,05,47,14.10
2012,07,17,05,48,14.10
2012,07,17,05,49,14.10
2012,07,17,05,50,14.10
2012,07,17,05,51,14.10
2012,07,17,05,52,14.10
2012,07,17,05,53,14.10
2012,07,17,05,54,14.10
2012,07,17,05,55,14.10
2012,07,17,05,56,14.10
2012,07,17,05,57,14.10
2012,07,17,05,58,14.10
2012,07,17,05,59,14.10
2012,07,17,06,00,14.10
2012,07,17,06,01,14.10
2012,07,17,06,02,14.10
2012,07,17,06,03,14.10
2012,07,17,06,04,14.10
2012,07,17,06,05,14.10
2012,07,17,06,06,14.10
2012,07,17,06,07,14.10
2012,07,17,06,08,14.10
2012,07,17,06,09,14.10
2012,07,17,06,10,14.10
2012,07,17,06,11,14.10
2012,07,17,06,12,14.10
2012,07,17,06,13,14.10
2012,07,17,06,14,14.10
2012,07,17,06,15,14.10
2012,07,17,06,16,14.10
2012,07,17,06,17,14.10
2012,07,17,06,18,14.20
2012,07,17,06,19,14.20
2012,07,17,06,20,14.20
2012,07,17,06,21,14.20
2012,07,17,06,22,14.20
2012,07,17,06,23,14.20
2012,07,17,06,24,14.20
2012,07,17,06,25,14.20
2012,07,17,06,26,14.20
2012,07,17,06,27,14.20
2012,07,17,06,28,14.20
2012,07,17,06,29,14.30
2012,07,17,06,30,14.30
2012,07,17,06,31,14.30
2012,07,17,06,32,14.30
2012,07,17,06,33,14.30
2012,07,17,06,34,14.30
2012,07,17,06,35,14.30
2012,07,17,06,36,14.30
2012,07,17,06,37,14.30
2012,07,17,06,38,14.30
2012,07,17,06,39,14.30
2012,07,17,06,40,14.30
2012,07,17,06,41,14.30
2012,07,17,06,42,14.30
2012,07,17,06,43,14.30
2012,07,17,06,44,14.30
2012,07,17,06,45,14.30
2012,07,17,06,46,14.30
2012,07,17,06,47,14.30
2012,07,17,06,48,14.30
2012,07,17,06,49,14.40
2012,07,17,06,50,14.40
2012,07,17,06,51,14.40
2012,07,17,06,52,14.40
2012,07,17,06,53,14.50
2012,07,17,06,54,14.50
2012,07,17,06,55,14.50
2012,07,17,06,56,14.50
2012,07,17,06,57,14.50
2012,07,17,06,58,14.60
2012,07,17,06,59,14.60
2012,07,17,07,00,14.60
2012,07,17,07,01,14.60
2012,07,17,07,02,14.70
2012,07,17,07,03,14.70
2012,07,17,07,04,14.70
2012,07,17,07,05,14.80
2012,07,17,07,06,14.80
2012,07,17,07,07,14.90
2012,07,17,07,08,14.90
2012,07,17,07,09,15.00
2012,07,17,07,10,15.10
2012,07,17,07,11,15.10
2012,07,17,07,12,15.20
2012,07,17,07,13,15.30
2012,07,17,07,14,15.30
2012,07,17,07,15,15.40
2012,07,17,07,16,15.40
2012,07,17,07,17,15.50
2012,07,17,07,18,15.60
2012,07,17,07,19,15.60
2012,07,17,07,20,15.70
2012,07,17,07,21,15.70
2012,07,17,07,22,15.80
2012,07,17,07,23,15.80
2012,07,17,07,24,15.90
2012,07,17,07,25,15.90
2012,07,17,07,26,15.90
2012,07,17,07,27,15.90
2012,07,17,07,28,15.90
2012,07,17,07,29,15.80
2012,07,17,07,30,15.80
2012,07,17,07,31,15.80
2012,07,17,07,32,15.80
2012,07,17,07,33,15.80
2012,07,17,07,34,15.80
2012,07,17,07,35,15.90
2012,07,17,07,36,15.90
2012,07,17,07,37,15.90
2012,07,17,07,38,15.90
2012,07,17,07,39,16.00
2012,07,17,07,40,16.00
2012,07,17,07,41,16.00
2012,07,17,07,42,16.00
2012,07,17,07,43,15.90
2012,07,17,07,44,15.90
2012,07,17,07,45,15.90
2012,07,17,07,46,15.80
2012,07,17,07,47,15.70
2012,07,17,07,48,15.60
2012,07,17,07,49,15.50
2012,07,17,07,50,15.50
2012,07,17,07,51,15.40
2012,07,17,07,52,15.30
2012,07,17,07,53,15.30
2012,07,17,07,54,15.30
2012,07,17,07,55,15.30
2012,07,17,07,56,15.30
2012,07,17,07,57,15.40
2012,07,17,07,58,15.40
2012,07,17,07,59,15.40
2012,07,17,08,00,15.40
2012,07,17,08,01,15.40
2012,07,17,08,02,15.30
2012,07,17,08,03,15.30
2012,07,17,08,04,15.30
2012,07,17,08,05,15.30
2012,07,17,08,06,15.40
2012,07,17,08,07,15.40
2012,07,17,08,08,15.40
2012,07,17,08,09,15.50
2012,07,17,08,10,15.60
2012,07,17,08,11,15.60
2012,07,17,08,12,15.70
2012,07,17,08,13,15.80
2012,07,17,08,14,15.90
2012,07,17,08,15,15.90
2012,07,17,08,16,16.00
2012,07,17,08,17,16.10
2012,07,17,08,18,16.20
2012,07,17,08,19,16.20
2012,07,17,08,20,16.30
2012,07,17,08,21,16.30
2012,07,17,08,22,16.30
2012,07,17,08,23,16.30
2012,07,17,08,24,16.40
2012,07,17,08,25,16.50
2012,07,17,08,26,16.60
2012,07,17,08,27,16.70
2012,07,17,08,28,16.70
2012,07,17,08,29,16.80
2012,07,17,08,30,16.90
2012,07,17,08,31,16.90
2012,07,17,08,32,17.00
2012,07,17,08,33,17.10
2012,07,17,08,34,17.10
2012,07,17,08,35,17.20
2012,07,17,08,36,17.20
2012,07,17,08,37,17.20
2012,07,17,08,38,17.20
2012,07,17,08,39,17.20
2012,07,17,08,40,17.20
2012,07,17,08,41,17.30
2012,07,17,08,42,17.30
2012,07,17,08,43,17.40
2012,07,17,08,44,17.40
2012,07,17,08,45,17.50
2012,07,17,08,46,17.50
2012,07,17,08,47,17.60
2012,07,17,08,48,17.70
2012,07,17,08,49,17.70
2012,07,17,08,50,17.80
2012,07,17,08,51,17.80
2012,07,17,08,52,17.90
2012,07,17,08,53,17.90
2012,07,17,08,54,17.90
2012,07,17,08,55,17.90
2012,07,17,08,56,17.90
2012,07,17,08,57,17.80
2012,07,17,08,58,17.70
2012,07,17,08,59,17.70
2012,07,17,09,00,17.70
2012,07,17,09,01,17.70
2012,07,17,09,02,17.70
2012,07,17,09,03,17.60
2012,07,17,09,04,17.60
2012,07,17,09,05,17.50
2012,07,17,09,06,17.40
2012,07,17,09,07,17.30
2012,07,17,09,08,17.20
2012,07,17,09,09,17.10
2012,07,17,09,10,17.00
2012,07,17,09,11,16.90
2012,07,17,09,12,16.80
2012,07,17,09,13,16.80
2012,07,17,09,14,16.80
2012,07,17,09,15,16.80
2012,07,17,09,16,16.80
2012,07,17,09,17,16.80
2012,07,17,09,18,16.80
2012,07,17,09,19,16.80
2012,07,17,09,20,16.90
2012,07,17,09,21,16.90
2012,07,17,09,22,17.00
2012,07,17,09,23,17.00
2012,07,17,09,24,17.10
2012,07,17,09,25,17.10
2012,07,17,09,26,17.10
2012,07,17,09,27,17.20
2012,07,17,09,28,17.20
2012,07,17,09,29,17.30
2012,07,17,09,30,17.30
2012,07,17,09,31,17.40
2012,07,17,09,32,17.50
2012,07,17,09,33,17.50
2012,07,17,09,34,17.60
2012,07,17,09,35,17.60
2012,07,17,09,36,17.60
2012,07,17,09,37,17.70
2012,07,17,09,38,17.70
2012,07,17,09,39,17.70
2012,07,17,09,40,17.70
2012,07,17,09,41,17.70
2012,07,17,09,42,17.70
2012,07,17,09,43,17.70
2012,07,17,09,44,17.70
2012,07,17,09,45,17.80
2012,07,17,09,46,17.80
2012,07,17,09,47,17.80
2012,07,17,09,48,17.90
2012,07,17,09,49,17.90
2012,07,17,09,50,18.00
2012,07,17,09,51,18.00
2012,07,17,09,52,18.00
2012,07,17,09,53,18.00
2012,07,17,09,54,18.00
2012,07,17,09,55,18.00
2012,07,17,09,56,18.00
2012,07,17,09,57,18.00
2012,07,17,09,58,18.10
2012,07,17,09,59,18.10
2012,07,17,10,00,18.20
2012,07,17,10,01,18.30
2012,07,17,10,02,18.50
2012,07,17,10,03,18.60
2012,07,17,10,04,18.70
2012,07,17,10,05,18.70
2012,07,17,10,06,18.80
2012,07,17,10,07,18.90
2012,07,17,10,08,19.00
2012,07,17,10,09,19.10
2012,07,17,10,10,19.10
2012,07,17,10,11,19.20
2012,07,17,10,12,19.20
2012,07,17,10,13,19.30
2012,07,17,10,14,19.30
2012,07,17,10,15,19.30
2012,07,17,10,16,19.40
2012,07,17,10,17,19.50
2012,07,17,10,18,19.60
2012,07,17,10,19,19.70
2012,07,17,10,20,19.80
2012,07,17,10,21,19.90
2012,07,17,10,22,20.00
2012,07,17,10,23,20.10
2012,07,17,10,24,20.10
2012,07,17,10,25,20.20
2012,07,17,10,26,20.30
2012,07,17,10,27,20.30
2012,07,17,10,28,20.40
2012,07,17,10,29,20.40
2012,07,17,10,30,20.50
2012,07,17,10,31,20.60
2012,07,17,10,32,20.60
2012,07,17,10,33,20.70
2012,07,17,10,34,20.70
2012,07,17,10,35,20.70
2012,07,17,10,36,20.70
2012,07,17,10,37,20.70
2012,07,17,10,38,20.60
2012,07,17,10,39,20.60
2012,07,17,10,40,20.60
2012,07,17,10,41,20.70
2012,07,17,10,42,20.70
2012,07,17,10,43,20.70
2012,07,17,10,44,20.60
2012,07,17,10,45,20.50
2012,07,17,10,46,20.40
2012,07,17,10,47,20.30
2012,07,17,10,48,20.20
2012,07,17,10,49,20.20
2012,07,17,10,50,20.10
2012,07,17,10,51,20.10
2012,07,17,10,52,20.10
2012,07,17,10,53,20.00
2012,07,17,10,54,20.00
2012,07,17,10,55,20.00
2012,07,17,10,56,20.00
2012,07,17,10,57,20.00
2012,07,17,10,58,20.10
2012,07,17,10,59,20.10
2012,07,17,11,00,20.10
2012,07,17,11,01,20.10
2012,07,17,11,02,20.10
2012,07,17,11,03,20.10
2012,07,17,11,04,20.10
2012,07,17,11,05,20.10
2012,07,17,11,06,20.10
2012,07,17,11,07,20.00
2012,07,17,11,08,19.90
2012,07,17,11,09,19.90
2012,07,17,11,10,19.90
2012,07,17,11,11,19.90
2012,07,17,11,12,19.90
2012,07,17,11,13,20.00
2012,07,17,11,14,20.10
2012,07,17,11,15,20.10
2012,07,17,11,16,20.10
2012,07,17,11,17,20.10
2012,07,17,11,18,20.20
2012,07,17,11,19,20.20
2012,07,17,11,20,20.30
2012,07,17,11,21,20.40
2012,07,17,11,22,20.40
2012,07,17,11,23,20.50
2012,07,17,11,24,20.50
2012,07,17,11,25,20.60
2012,07,17,11,26,20.70
2012,07,17,11,27,20.80
2012,07,17,11,28,21.00
2012,07,17,11,29,21.10
2012,07,17,11,30,21.30
2012,07,17,11,31,21.40
2012,07,17,11,32,21.40
2012,07,17,11,33,21.20
2012,07,17,11,34,21.10
2012,07,17,11,35,21.00
2012,07,17,11,36,20.90
2012,07,17,11,37,20.80
2012,07,17,11,38,20.70
2012,07,17,11,39,20.70
2012,07,17,11,40,20.70
2012,07,17,11,41,20.60
2012,07,17,11,42,20.60
2012,07,17,11,43,20.70
2012,07,17,11,44,20.70
2012,07,17,11,45,20.70
2012,07,17,11,46,20.70
2012,07,17,11,47,20.60
2012,07,17,11,48,20.60
2012,07,17,11,49,20.60
2012,07,17,11,50,20.60
2012,07,17,11,51,20.60
2012,07,17,11,52,20.60
2012,07,17,11,53,20.70
2012,07,17,11,54,20.70
2012,07,17,11,55,20.70
2012,07,17,11,56,20.80
2012,07,17,11,57,20.80
2012,07,17,11,58,20.90
2012,07,17,11,59,20.90
2012,07,17,12,00,20.90
2012,07,17,12,01,20.90
2012,07,17,12,02,20.90
2012,07,17,12,03,21.00
2012,07,17,12,04,21.00
2012,07,17,12,05,21.10
2012,07,17,12,06,21.10
2012,07,17,12,07,21.10
2012,07,17,12,08,21.00
2012,07,17,12,09,20.90
2012,07,17,12,10,21.00
2012,07,17,12,11,21.00
2012,07,17,12,12,21.10
2012,07,17,12,13,21.20
2012,07,17,12,14,21.30
2012,07,17,12,15,21.40
2012,07,17,12,16,21.60
2012,07,17,12,17,21.70
2012,07,17,12,18,21.80
2012,07,17,12,19,21.80
2012,07,17,12,20,21.80
2012,07,17,12,21,21.80
2012,07,17,12,22,21.80
2012,07,17,12,23,21.90
2012,07,17,12,24,22.00
2012,07,17,12,25,22.10
2012,07,17,12,26,22.10
2012,07,17,12,27,22.20
2012,07,17,12,28,22.20
2012,07,17,12,29,22.30
2012,07,17,12,30,22.30
2012,07,17,12,31,22.40
2012,07,17,12,32,22.40
2012,07,17,12,33,22.40
2012,07,17,12,34,22.40
2012,07,17,12,35,22.30
2012,07,17,12,36,22.30
2012,07,17,12,37,22.30
2012,07,17,12,38,22.30
2012,07,17,12,39,22.40
2012,07,17,12,40,22.50
2012,07,17,12,41,22.60
2012,07,17,12,42,22.70
2012,07,17,12,43,22.90
2012,07,17,12,44,22.90
2012,07,17,12,45,23.00
2012,07,17,12,46,23.10
2012,07,17,12,47,23.10
2012,07,17,12,48,23.10
2012,07,17,12,49,23.20
2012,07,17,12,50,23.30
2012,07,17,12,51,23.30
2012,07,17,12,52,23.40
2012,07,17,12,53,23.40
2012,07,17,12,54,23.40
2012,07,17,12,55,23.30
2012,07,17,12,56,23.30
2012,07,17,12,57,23.30
2012,07,17,12,58,23.30
2012,07,17,12,59,23.30
2012,07,17,13,00,23.30
2012,07,17,13,01,23.40
2012,07,17,13,02,23.40
2012,07,17,13,03,23.50
2012,07,17,13,04,23.50
2012,07,17,13,05,23.60
2012,07,17,13,06,23.70
2012,07,17,13,07,23.80
2012,07,17,13,08,23.80
2012,07,17,13,09,23.90
2012,07,17,13,10,24.00
2012,07,17,13,11,24.10
2012,07,17,13,12,24.20
2012,07,17,13,13,24.20
2012,07,17,13,14,24.30
2012,07,17,13,15,24.40
2012,07,17,13,16,24.50
2012,07,17,13,17,24.60
2012,07,17,13,18,24.70
2012,07,17,13,19,24.80
2012,07,17,13,20,24.90
2012,07,17,13,21,24.90
2012,07,17,13,22,24.90
2012,07,17,13,23,24.90
2012,07,17,13,24,24.90
2012,07,17,13,25,24.90
2012,07,17,13,26,24.90
2012,07,17,13,27,24.90
2012,07,17,13,28,24.90
2012,07,17,13,29,25.00
2012,07,17,13,30,25.10
2012,07,17,13,31,25.00
2012,07,17,13,32,24.90
2012,07,17,13,33,24.80
2012,07,17,13,34,24.80
2012,07,17,13,35,24.70
2012,07,17,13,36,24.70
2012,07,17,13,37,24.60
2012,07,17,13,38,24.60
2012,07,17,13,39,24.50
2012,07,17,13,40,24.50
2012,07,17,13,41,24.50
2012,07,17,13,42,24.40
2012,07,17,13,43,24.30
2012,07,17,13,44,24.20
2012,07,17,13,45,24.10
2012,07,17,13,46,24.00
2012,07,17,13,47,23.90
2012,07,17,13,48,23.90
2012,07,17,13,49,23.90
2012,07,17,13,50,23.80
2012,07,17,13,51,23.50
2012,07,17,13,52,23.10
2012,07,17,13,53,22.70
2012,07,17,13,54,22.30
2012,07,17,13,55,22.00
2012,07,17,13,56,21.80
2012,07,17,13,57,21.70
2012,07,17,13,58,21.60
2012,07,17,13,59,21.40
2012,07,17,14,00,21.30
2012,07,17,14,01,21.30
2012,07,17,14,02,21.30
2012,07,17,14,03,21.30
2012,07,17,14,04,21.30
2012,07,17,14,05,21.40
2012,07,17,14,06,21.40
2012,07,17,14,07,21.50
2012,07,17,14,08,21.60
2012,07,17,14,09,21.60
2012,07,17,14,10,21.70
2012,07,17,14,11,21.70
2012,07,17,14,12,21.80
2012,07,17,14,13,21.80
2012,07,17,14,14,21.90
2012,07,17,14,15,21.90
2012,07,17,14,16,22.00
2012,07,17,14,17,22.00
2012,07,17,14,18,22.00
2012,07,17,14,19,21.90
2012,07,17,14,20,21.90
2012,07,17,14,21,21.90
2012,07,17,14,22,21.80
2012,07,17,14,23,21.80
2012,07,17,14,24,21.80
2012,07,17,14,25,21.80
2012,07,17,14,26,21.80
2012,07,17,14,27,21.70
2012,07,17,14,28,21.60
2012,07,17,14,29,21.60
2012,07,17,14,30,21.60
2012,07,17,14,31,21.60
2012,07,17,14,32,21.60
2012,07,17,14,33,21.60
2012,07,17,14,34,21.60
2012,07,17,14,35,21.60
2012,07,17,14,36,21.60
2012,07,17,14,37,21.60
2012,07,17,14,38,21.60
2012,07,17,14,39,21.70
2012,07,17,14,40,21.70
2012,07,17,14,41,21.70
2012,07,17,14,42,21.80
2012,07,17,14,43,21.80
2012,07,17,14,44,21.90
2012,07,17,14,45,22.00
2012,07,17,14,46,22.10
2012,07,17,14,47,22.20
2012,07,17,14,48,22.30
2012,07,17,14,49,22.40
2012,07,17,14,50,22.50
2012,07,17,14,51,22.60
2012,07,17,14,52,22.70
2012,07,17,14,53,22.80
2012,07,17,14,54,23.00
2012,07,17,14,55,23.10
2012,07,17,14,56,23.20
2012,07,17,14,57,23.20
2012,07,17,14,58,23.30
2012,07,17,14,59,23.40
2012,07,17,15,00,23.40
2012,07,17,15,01,23.40
2012,07,17,15,02,23.40
2012,07,17,15,03,23.50
2012,07,17,15,04,23.60
2012,07,17,15,05,23.60
2012,07,17,15,06,23.70
2012,07,17,15,07,23.70
2012,07,17,15,08,23.80
2012,07,17,15,09,23.70
2012,07,17,15,10,23.60
2012,07,17,15,11,23.40
2012,07,17,15,12,23.30
2012,07,17,15,13,23.30
2012,07,17,15,14,23.20
2012,07,17,15,15,23.10
2012,07,17,15,16,23.10
2012,07,17,15,17,23.10
2012,07,17,15,18,23.10
2012,07,17,15,19,23.00
2012,07,17,15,20,23.00
2012,07,17,15,21,22.90
2012,07,17,15,22,22.90
2012,07,17,15,23,22.90
2012,07,17,15,24,22.90
2012,07,17,15,25,22.80
2012,07,17,15,26,22.90
2012,07,17,15,27,22.90
2012,07,17,15,28,22.90
2012,07,17,15,29,22.90
2012,07,17,15,30,22.90
2012,07,17,15,31,22.90
2012,07,17,15,32,22.90
2012,07,17,15,33,22.90
2012,07,17,15,34,22.90
2012,07,17,15,35,22.90
2012,07,17,15,36,23.00
2012,07,17,15,37,23.00
2012,07,17,15,38,23.10
2012,07,17,15,39,23.20
2012,07,17,15,40,23.30
2012,07,17,15,41,23.40
2012,07,17,15,42,23.50
2012,07,17,15,43,23.60
2012,07,17,15,44,23.80
2012,07,17,15,45,23.90
2012,07,17,15,46,24.10
2012,07,17,15,47,24.20
2012,07,17,15,48,24.30
2012,07,17,15,49,24.30
2012,07,17,15,50,24.40
2012,07,17,15,51,24.50
2012,07,17,15,52,24.60
2012,07,17,15,53,24.70
2012,07,17,15,54,24.80
2012,07,17,15,55,24.80
2012,07,17,15,56,24.90
2012,07,17,15,57,25.00
2012,07,17,15,58,25.10
2012,07,17,15,59,25.10
2012,07,17,16,00,25.10
2012,07,17,16,01,25.10
2012,07,17,16,02,25.20
2012,07,17,16,03,25.20
2012,07,17,16,04,25.20
2012,07,17,16,05,25.20
2012,07,17,16,06,25.20
2012,07,17,16,07,25.20
2012,07,17,16,08,25.30
2012,07,17,16,09,25.20
2012,07,17,16,10,25.20
2012,07,17,16,11,25.10
2012,07,17,16,12,25.10
2012,07,17,16,13,25.10
2012,07,17,16,14,25.00
2012,07,17,16,15,25.10
2012,07,17,16,16,25.10
2012,07,17,16,17,25.20
2012,07,17,16,18,25.10
2012,07,17,16,19,25.10
2012,07,17,16,20,25.10
2012,07,17,16,21,25.10
2012,07,17,16,22,25.00
2012,07,17,16,23,24.90
2012,07,17,16,24,24.80
2012,07,17,16,25,24.70
2012,07,17,16,26,24.60
2012,07,17,16,27,24.60
2012,07,17,16,28,24.60
2012,07,17,16,29,24.60
2012,07,17,16,30,24.60
2012,07,17,16,31,24.50
2012,07,17,16,32,24.40
2012,07,17,16,33,24.30
2012,07,17,16,34,24.30
2012,07,17,16,35,24.30
2012,07,17,16,36,24.30
2012,07,17,16,37,24.30
2012,07,17,16,38,24.20
2012,07,17,16,39,24.10
2012,07,17,16,40,24.10
2012,07,17,16,41,24.10
2012,07,17,16,42,24.20
2012,07,17,16,43,24.30
2012,07,17,16,44,24.30
2012,07,17,16,45,24.30
2012,07,17,16,46,24.30
2012,07,17,16,47,24.20
2012,07,17,16,48,24.20
2012,07,17,16,49,24.20
2012,07,17,16,50,24.20
2012,07,17,16,51,24.30
2012,07,17,16,52,24.20
2012,07,17,16,53,24.20
2012,07,17,16,54,24.20
2012,07,17,16,55,24.20
2012,07,17,16,56,24.30
2012,07,17,16,57,24.30
2012,07,17,16,58,24.30
2012,07,17,16,59,24.40
2012,07,17,17,00,24.50
2012,07,17,17,01,24.70
2012,07,17,17,02,24.80
2012,07,17,17,03,24.90
2012,07,17,17,04,25.00
2012,07,17,17,05,25.10
2012,07,17,17,06,25.10
2012,07,17,17,07,25.10
2012,07,17,17,08,25.20
2012,07,17,17,09,25.20
2012,07,17,17,10,25.20
2012,07,17,17,11,25.20
2012,07,17,17,12,25.20
2012,07,17,17,13,25.10
2012,07,17,17,14,25.10
2012,07,17,17,15,25.10
2012,07,17,17,16,25.10
2012,07,17,17,17,25.10
2012,07,17,17,18,25.20
2012,07,17,17,19,25.20